Regional Weather Roundup
Issued by NWS Northern Indiana

Home | Current Version | Previous Version | Text Only | Print | Product List | Glossary On
Versions: 1 2 3 4 5 6 7 8 9 10 11 12 13 14 15 16 17 18 19 20 21 22 23 24 25 26 27 28 29 30 31 32 33 34 35 36 37 38 39 40 41 42 43 44 45 46 47 48 49 50
763
ASUS43 KIWX 271600
RWRIWX

KIWX WEATHER ROUNDUP
NATIONAL WEATHER SERVICE NORTHERN INDIANA
1200 PM EDT TUE SEP 27 2016

NOTE: "FAIR" INDICATES FEW OR NO CLOUDS BELOW 12,000 FEET WITH NO
SIGNIFICANT WEATHER AND/OR OBSTRUCTIONS TO VISIBILITY.

* THESE STATIONS ARE NOT UNDER NWS QUALITY CONTROL. THEY ALSO MAY NOT
  REPORT WEATHER SUCH AS PRECIPITATION OR FOG.

INZ001>027-271700-
NORTHERN INDIANA

CITY           SKY/WX    TMP DP  RH WIND       PRES   REMARKS
GARY*          MOSUNNY   66  36  32 W17G31    29.85S
KNOX*          SUNNY     64   5   9 W14G23    29.85F
SOUTH BEND     SUNNY     64  35  34 W28G35    29.82F
ELKHART*       SUNNY    N/A N/A N/A SW14G21   29.81F
GOSHEN         SUNNY     64  35  34 W22G28    29.83F
MONTICELLO*    SUNNY     68  29  23 W16G23    29.88F
WARSAW*        SUNNY     64  32  29 W15G21    29.85F
ANGOLA*          N/A     64  57  77 W18       29.82F
FORT WAYNE     MOSUNNY   67  38  34 W17G24    29.86F
PERU/GRISSOM   SUNNY     67  40  36 W23       29.86F

$$
INZ028>050-271700-
CENTRAL INDIANA

CITY           SKY/WX    TMP DP  RH WIND       PRES   REMARKS
LAFAYETTE      SUNNY     66  45  46 W10       29.89F
MUNCIE*        SUNNY     70  45  40 W12G21    29.89F
INDIANAPOLIS   SUNNY     68  48  48 W13       29.93F

$$
MIZ043>046-050>051-056>058-064>065-071>073-077>080-271700-
SOUTHWEST LOWER MICHIGAN

CITY           SKY/WX    TMP DP  RH WIND       PRES   REMARKS
BATTLE CREEK   MOSUNNY   64  43  46 W21G32    29.77S
BENTON HARBOR  SUNNY     66  35  31 W29G37    29.79F
COLDWATER*     SUNNY     64  38  39 W14G26    29.79F
HILLSDALE*     SUNNY     63  34  34 W16G23    29.79F
HOLLAND        MOSUNNY   63  44  50 W24G38    29.75S
GRAND RAPIDS   PTSUNNY   61  41  47 W24G30    29.73F
KALAMAZOO      MOSUNNY   65  39  38 W23G33    29.78F
STURGIS*       SUNNY     63  40  42 W14G24    29.80F
THREE RIVERS*  FAIR      65  46  51 W10G18    29.80F

$$
OHZ001>008-015>018-024>025-271700-
NORTHWEST OHIO

CITY           SKY/WX    TMP DP  RH WIND       PRES   REMARKS
DEFIANCE       SUNNY     68  41  37 SW10G17   29.84F
FINDLAY        SUNNY     70  40  33 W18G29    29.84F
TOLEDO EXPRESS SUNNY     65  42  43 W18       29.82F
TOLEDO METCALF SUNNY     67  43  41 SW18G25   29.82F
LIMA           SUNNY     69  45  41 SW25G31   29.87F

$$
AND FOR LAKE MICHIGAN COASTAL AND OPEN LAKE BUOY OBSERVATIONS

STATION/POSITION TEMP    WIND        PRES    VSBY  WAVE
                 AIR SEA DIR/SP/G                  HT/PER
                 (F)     (DEG/KT/KT) (MB)    (MI)  (FT/S)
CALUMET HARBOR    64     230/ 11/ 21 1009.8F
MICHIGAN CITY     61     220/ 27/ 31   N/A
BURNS HARBOR      63     250/ 19/ 25 1010.5F
SAINT JOSEPH      63     250/ 21/ 25 1009.8F
SOUTH LAKE BUOY   59 70  260/ 25/ 31 1006.8          5/ 5
4 MI NW BRIDGMAN  63 67  260/ 23/ 31 1009.2F         7/ 5
MICHIGAN CITY     63 67  260/ 19/ 27   N/A           5/ 4

$$
&&




USA.gov is the U.S. government's official web portal to all federal, state and local government web resources and services.